Regional Weather Roundup
Issued by NWS State College, PA

Home | Current Version | Previous Version | Graphics & Text | Print | Product List | Glossary Off
Versions: 1 2 3 4 5 6 7 8 9 10 11 12 13 14 15 16 17 18 19 20 21 22 23 24 25 26 27 28 29 30 31 32 33 34 35 36 37 38 39 40 41 42 43 44 45 46 47 48 49 50

000
ASUS41 KCTP 271710
RWRCTP

REGIONAL WEATHER ROUNDUP
NATIONAL WEATHER SERVICE STATE COLLEGE PA
100 PM EDT THU APR 27 2017

Note: "fair" indicates few or no clouds below 12,000 feet with no
significant weather and/or obstructions to visibility.

* = STATION THAT DOES NOT REPORT PRECIPITATION /E.G. RAIN...SNOW...ETC/
    THUNDER OR FOG.

PAZ002>004-007>009-013>016-020>023-029>032-271800-
WESTERN PENNSYLVANIA

CITY           SKY/WX    TMP DP  RH WIND       PRES   REMARKS
ERIE           MOSUNNY   81  58  45 S18G25    29.60S
MEADVILLE      SUNNY     78  56  46 S14G20    29.65F
FRANKLIN*      MOSUNNY   77  57  50 S15G21    29.68F
NEW CASTLE     FAIR      81  57  43 S8        29.64F
BEAVER COUNTY  NOT AVBL
BUTLER*        PTSUNNY   79  57  47 SE10G16   29.67F
PITTSBURGH INT CLOUDY    79  54  41 S10       29.65F
PITTSBURGH     MOSUNNY   78  51  38 S15G23    29.66F
INDIANA*       SUNNY     79  57  47 SE10G20   29.72F
LATROBE        PTSUNNY   81  55  41 E17       29.68F
WASHINGTON CO* PTSUNNY   79  55  44 S16G22    29.71R
$$

PAZ004>006-010>012-017>019-024>028-033>037-041-042-045-046-049>053-271800-
CENTRAL PENNSYLVANIA

CITY           SKY/WX    TMP DP  RH WIND       PRES   REMARKS
BRADFORD       MOSUNNY   72  59  63 SE13      29.73F
DUBOIS         CLOUDY    74  57  55 E17G24    29.70F
CLEARFIELD     CLOUDY    70  58  65 SE8G17    29.76F
JOHNSTOWN      SUNNY     68  58  70 SE13G20   29.75F
ALTOONA        MOSUNNY   70  61  73 E7        29.79F
STATE COLLEGE  PTSUNNY   66  59  77 S9        29.80F
WILLIAMSPORT   CLOUDY    66  59  78 E9        29.81F
SELINSGROVE    CLOUDY    71  64  78 S6        29.82F
FT INDIANTOWN  MOSUNNY   72  68  86 SE7       29.83F
CAPITAL CITY   CLOUDY    74  62  66 E9        29.82F
HARRISBURG     CLOUDY    74  63  68 SE3       29.81F
YORK           CLOUDY    73  64  73 S6        29.82F
$$

PAZ038>040-043-044-047-048-054-055-060>062-067>071-271800-
EASTERN PENNSYLVANIA

CITY           SKY/WX    TMP DP  RH WIND       PRES   REMARKS
SCRANTON       MOSUNNY   72  59  63 VRB7G17   29.84F
MOUNT POCONO   CLOUDY    62  58  86 SE7       29.90F
ALLENTOWN      PTSUNNY   73  59  61 CALM      29.87F
QUAKERTOWN*    SUNNY     75  63  64 S6        29.88F
READING        CLOUDY    75  64  68 VRB7      29.83F
LANCASTER      CLOUDY    76  67  73 S8        29.83F
COATESVILLE    CLOUDY    73  64  73 VRB7G14   29.88F
POTTSTOWN      CLOUDY    73  62  68 VRB7      29.87F
BLUE BELL      PTSUNNY   72  63  73 SE6       29.88F
DOYLESTOWN     PTSUNNY   71  61  70 VRB6      29.87F
WILLOW GROVE   NOT AVBL
NORTH PHILA    MOSUNNY   76  63  64 VRB6      29.89F
PHILADELPHIA   PTSUNNY   76  62  62 S6        29.87F
$$




USA.gov is the U.S. government's official web portal to all federal, state and local government web resources and services.